This is the latest recevied weather packets stored in our database for station/object DB0FN-10. If no packets are shown the sender has not sent any weather packets the latest 10 day(s).
| Time | Temp. | Humidity | Pressure | Rain* | Wind** | Luminosity | Snow |
|---|---|---|---|---|---|---|---|
| 1787390195 | 22.22° C | 59% | 1023.5 hPa | - | - | - | - |
| 1787389295 | 21.67° C | 58% | 1023.4 hPa | - | - | - | - |
| 1787388395 | 21.67° C | 59% | 1023.4 hPa | - | - | - | - |
| 1787387495 | 21.67° C | 61% | 1023.2 hPa | - | - | - | - |
| 1787386594 | 21.67° C | 60% | 1023.2 hPa | - | - | - | - |
| 1787385694 | 21.67° C | 60% | 1023 hPa | - | - | - | - |
| 1787384794 | 21.67° C | 58% | 1022.9 hPa | - | - | - | - |
| 1787383894 | 21.11° C | 59% | 1022.9 hPa | - | - | - | - |
| 1787382994 | 21.11° C | 61% | 1022.7 hPa | - | - | - | - |
| 1787382094 | 21.11° C | 62% | 1022.6 hPa | - | - | - | - |
| 1787381194 | 20.56° C | 62% | 1022.5 hPa | - | - | - | - |
| 1787380294 | 20.56° C | 62% | 1022.4 hPa | - | - | - | - |
| 1787379394 | 20° C | 63% | 1022.4 hPa | - | - | - | - |
| 1787378494 | 20.56° C | 62% | 1022.1 hPa | - | - | - | - |
| 1787377594 | 20.56° C | 62% | 1021.8 hPa | - | - | - | - |
| 1787376694 | 20° C | 63% | 1021.7 hPa | - | - | - | - |
| 1787375794 | 20° C | 62% | 1021.5 hPa | - | - | - | - |
| 1787374893 | 19.44° C | 63% | 1021.5 hPa | - | - | - | - |
| 1787373993 | 19.44° C | 63% | 1021.4 hPa | - | - | - | - |
| 1787373093 | 18.89° C | 64% | 1021.2 hPa | - | - | - | - |
| 1787372193 | 18.89° C | 64% | 1021.2 hPa | - | - | - | - |
| 1787371293 | 19.44° C | 63% | 1021.1 hPa | - | - | - | - |
| 1787370393 | 18.89° C | 64% | 1021 hPa | - | - | - | - |
| 1787369493 | 18.89° C | 64% | 1021.1 hPa | - | - | - | - |
| 1787368593 | 18.89° C | 62% | 1021 hPa | - | - | - | - |
* Rain since midnight (hover to see other rain measurements)
** Current wind speed in m/s (hover to see current wind gust speed)